This demonstration page uses our WeatherBlox Daily Observations layout. Learn more.

Left ArrowRight Arrow

Hourly Observations for May 24, 2022

Temp ( °F °C ) Dew Point ( °F °C ) Humidity (%) Winds ( mph kmh ) Pressure ( in mb ) Visibility ( mi km ) Precip ( " mm )
12:52 am 00:52 Cloudy 59 15 51 10.6 75 75 SE 8 13 30.06 1018 10 16 0.00 0.00
1:52 am 01:52 Cloudy 59 15 51 10.6 75 75 ESE 8 13 30.04 1017 10 16 0.00 0.00
2:52 am 02:52 Mostly Cloudy 58 14.4 51 10.6 78 78 SE 10 17 30.00 1016 10 16 0.00 0.00
3:19 am 03:19 Partly Cloudy 58 14.4 51 10.6 78 78 SE 13 20 29.99 1016 10 16 0.00 0.00
3:49 am 03:49 Mostly Cloudy 57 14 52 11 82 82 SE 13 20 29.98 1015 10 16 0.00 0.00
3:52 am 03:52 Mostly Cloudy 58 14.4 51 10.6 78 78 ESE 12 19 29.98 1015 10 16 0.00 0.00
4:21 am 04:21 Partly Cloudy 58 14.4 51 10.6 78 78 SE 12 19 29.98 1015 10 16 0.00 0.00
4:52 am 04:52 Clear 58 14.4 51 10.6 78 78 SE 10 17 29.98 1015 10 16 0.00 0.00
5:40 am 05:40 Mostly Cloudy 57 13.9 50 10 78 78 SE 9 15 29.98 1015 10 16 0.00 0.00
5:52 am 05:52 Mostly Cloudy 57 13.9 50 10 78 78 SE 10 17 29.98 1015 10 16 0.00 0.00
5:59 am 05:59 Mostly Cloudy 57 13.9 51 10.6 81 81 SE 8 13 29.98 1015 10 16 0.00 0.00
6:19 am 06:19 Cloudy 57 13.9 51 10.6 81 81 SE 7 11 29.99 1016 10 16 0.00 0.00
6:52 am 06:52 Cloudy 58 14.4 52 11.1 81 81 SE 12 19 30.00 1016 10 16 0.00 0.00
7:19 am 07:19 Cloudy 58 14.4 53 11.7 84 84 SE 8 13 30.00 1016 10 16 0.00 0.00
7:52 am 07:52 Cloudy 58 14.4 53 11.7 84 84 E 7 11 29.98 1015 10 16 0.00 0.00
8:52 am 08:52 Cloudy 59 15 54 12.2 83 83 E 8 13 29.97 1015 10 16 0.00 0.00
9:52 am 09:52 Cloudy 59 15 56 13.3 90 90 ESE 13 20 29.94 1014 9 14 0.00 0.00
10:13 am 10:13 Cloudy 60 15.6 56 13.3 86 86 E 10 17 29.92 1013 10 16 0.00 0.00
10:41 am 10:41 Cloudy 61 16.1 56 13.3 84 84 ESE 12 19 29.91 1013 10 16 0.00 0.00
10:52 am 10:52 Cloudy 61 16.1 57 13.9 87 87 ESE 14 22 29.92 1013 10 16 0.00 0.00
11:52 am 11:52 Cloudy 62 16.7 58 14.4 86 86 ESE 10 17 29.91 1013 10 16 0.00 0.00
12:52 pm 12:52 Cloudy 64 17.8 58 14.4 81 81 ESE 20 31 29.88 1012 10 16 0.00 0.00
1:52 pm 13:52 Cloudy 65 18.3 59 15 81 81 ESE 14 22 29.85 1011 10 16 0.00 0.00
2:52 pm 14:52 Cloudy with Light Rain 63 17.2 60 15.6 90 90 SE 10 17 29.85 1011 6 10 0.02 0.51
3:14 pm 15:14 Cloudy with Rain 62 16.7 60 15.6 93 93 SE 12 19 29.83 1010 3 4 0.05 1.27
3:23 pm 15:23 Cloudy with Rain 62 16.7 60 15.6 93 93 ESE 12 19 29.83 1010 4 6 0.07 1.78
3:32 pm 15:32 Cloudy with Light Rain 62 16.7 61 16.1 96 96 ESE 10 17 29.82 1010 6 10 0.08 2.03
3:48 pm 15:48 Cloudy with Light Rain 63 17 61 16 94 94 ESE 14 22 29.82 1010 10 16 0.08 2.03
3:52 pm 15:52 Cloudy with Light Rain 63 17.2 61 16.1 93 93 SE 14 22 29.83 1010 10 16 0.08 2.03
4:32 pm 16:32 Cloudy 63 17.2 61 16.1 93 93 ESE 15 24 29.81 1009 10 16 0.00 0.00
4:52 pm 16:52 Cloudy with Light Rain 63 17.2 61 16.1 93 93 SE 12 19 29.81 1009 10 16 0.00 0.00
5:48 pm 17:48 Cloudy with Light Rain 63 17 61 16 94 94 SE 13 20 29.80 1009 6 10 0.09 2.29
5:52 pm 17:52 Cloudy with Light Rain 62 16.7 61 16.1 96 96 SE 14 22 29.80 1009 8 13 0.09 2.29
6:28 pm 18:28 Cloudy with Light Rain 62 16.7 61 16.1 96 96 SE 14 22 29.79 1009 6 10 0.02 0.51
6:52 pm 18:52 Cloudy with Rain 62 16.7 61 16.1 96 96 SE 13 20 29.80 1009 4 6 0.05 1.27
7:08 pm 19:08 Cloudy 62 16.7 61 16.1 96 96 SE 15 24 29.79 1009 10 16 0.00 0.00
7:42 pm 19:42 Cloudy with Heavy Rain 62 16.7 61 16.1 96 96 SSE 14 22 29.80 1009 2 3 0.02 0.51
7:52 pm 19:52 Cloudy with Heavy Rain 62 16.7 61 16.1 96 96 SSE 12 19 29.80 1009 1 1 0.26 6.60
7:59 pm 19:59 Cloudy with Rain 62 16.7 61 16.1 96 96 SE 13 20 29.78 1008 2 3 0.09 2.29
8:02 pm 20:02 Cloudy with Light Rain 62 16.7 61 16.1 96 96 SE 13 20 29.78 1008 3 5 0.09 2.29
8:52 pm 20:52 Cloudy 62 16.7 61 16.1 96 96 SE 14 22 29.79 1009 10 16 0.10 2.54
9:52 pm 21:52 Cloudy with Light Rain 62 16.7 62 16.7 100 100 SE 15 24 29.79 1009 8 13 0.02 0.51
10:52 pm 22:52 Cloudy with Light Rain 62 16.7 62 16.7 100 100 SSE 12 19 29.79 1009 9 14 0.05 1.27
11:00 pm 23:00 Cloudy with Light Rain 62 16.7 62 16.7 100 100 SE 10 17 29.78 1008 8 13 0.00 0.00
11:52 pm 23:52 Mostly Cloudy 63 17.2 62 16.7 97 97 SSE 14 22 29.77 1008 10 16 0.02 0.51

Powered by AerisWeather